Time,TemperatureF,DewpointF,PressureIn,WindDirection,WindDirectionDegrees,WindSpeedMPH,WindSpeedGustMPH,Humidity,HourlyPrecipIn,Conditions,Clouds,dailyrainin,SoftwareType,DateUTC
2013-02-22 00:01:00,22.7,18.3,30.33,NE,42,4.0,4.0,83,0.00,,,0.00,Wunderground v.1.15,2013-02-22 05:01:00,
2013-02-22 00:05:00,22.8,18.4,30.32,ENE,68,4.0,4.0,83,0.00,,,0.00,Wunderground v.1.15,2013-02-22 05:05:00,
2013-02-22 00:10:00,22.8,18.4,30.33,NE,50,3.0,3.0,83,0.00,,,0.00,Wunderground v.1.15,2013-02-22 05:10:00,
2013-02-22 00:15:00,22.9,18.5,30.33,East,84,3.0,3.0,83,0.00,,,0.00,Wunderground v.1.15,2013-02-22 05:15:00,
2013-02-22 00:25:00,23.2,18.8,30.32,SSE,158,4.0,4.0,83,0.00,,,0.00,Wunderground v.1.15,2013-02-22 05:25:00,
2013-02-22 00:35:00,23.2,18.5,30.31,ENE,75,6.0,6.0,82,0.00,,,0.00,Wunderground v.1.15,2013-02-22 05:35:00,
2013-02-22 00:45:00,23.4,18.7,30.32,NE,50,5.0,7.0,82,0.00,,,0.00,Wunderground v.1.15,2013-02-22 05:45:00,
2013-02-22 00:55:00,23.5,18.8,30.33,NNE,21,4.0,5.0,82,0.00,,,0.00,Wunderground v.1.15,2013-02-22 05:55:00,
2013-02-22 01:00:00,23.4,18.7,30.31,ENE,63,5.0,5.0,82,0.00,,,0.00,Wunderground v.1.15,2013-02-22 06:00:00,
2013-02-22 01:10:00,23.4,18.7,30.32,NNE,30,5.0,6.0,82,0.00,,,0.00,Wunderground v.1.15,2013-02-22 06:10:00,
2013-02-22 01:20:00,23.3,18.6,30.32,ENE,78,5.0,5.0,82,0.00,,,0.00,Wunderground v.1.15,2013-02-22 06:20:00,
2013-02-22 01:25:00,23.3,18.6,30.32,East,99,5.0,8.0,82,0.00,,,0.00,Wunderground v.1.15,2013-02-22 06:25:00,
2013-02-22 01:35:00,23.2,18.5,30.31,East,101,5.0,17.0,82,0.00,,,0.00,Wunderground v.1.15,2013-02-22 06:35:00,
2013-02-22 01:45:00,23.3,18.6,30.31,SSE,148,5.0,7.0,82,0.00,,,0.00,Wunderground v.1.15,2013-02-22 06:45:00,
2013-02-22 01:50:00,23.3,18.6,30.31,ESE,111,6.0,6.0,82,0.00,,,0.00,Wunderground v.1.15,2013-02-22 06:50:00,
2013-02-22 02:00:00,23.3,18.6,30.31,East,80,5.0,5.0,82,0.00,,,0.00,Wunderground v.1.15,2013-02-22 07:00:00,
2013-02-22 02:05:00,23.3,18.6,30.31,ENE,64,5.0,5.0,82,0.00,,,0.00,Wunderground v.1.15,2013-02-22 07:05:00,
2013-02-22 02:15:00,23.3,18.9,30.31,ENE,60,5.0,6.0,83,0.00,,,0.00,Wunderground v.1.15,2013-02-22 07:15:00,
2013-02-22 02:20:00,23.3,18.9,30.30,ENE,77,5.0,6.0,83,0.00,,,0.00,Wunderground v.1.15,2013-02-22 07:20:00,
2013-02-22 02:30:00,23.2,18.5,30.29,ENE,70,6.0,7.0,82,0.00,,,0.00,Wunderground v.1.15,2013-02-22 07:30:00,
2013-02-22 02:35:00,23.3,18.9,30.29,ENE,60,4.0,7.0,83,0.00,,,0.00,Wunderground v.1.15,2013-02-22 07:35:00,
2013-02-22 02:45:00,23.2,18.8,30.28,ENE,66,7.0,9.0,83,0.00,,,0.00,Wunderground v.1.15,2013-02-22 07:45:00,
2013-02-22 02:55:00,23.1,18.7,30.27,East,79,8.0,8.0,83,0.00,,,0.00,Wunderground v.1.15,2013-02-22 07:55:00,
2013-02-22 03:01:00,23.1,18.7,30.26,NE,47,7.0,10.0,83,0.00,,,0.00,Wunderground v.1.15,2013-02-22 08:01:00,
2013-02-22 03:10:00,23.1,18.7,30.25,ENE,68,7.0,7.0,83,0.00,,,0.00,Wunderground v.1.15,2013-02-22 08:10:00,
2013-02-22 03:15:00,23.1,18.7,30.24,ENE,69,8.0,9.0,83,0.00,,,0.00,Wunderground v.1.15,2013-02-22 08:15:00,
2013-02-22 03:25:00,23.2,19.1,30.24,ENE,57,7.0,11.0,84,0.00,,,0.00,Wunderground v.1.15,2013-02-22 08:25:00,
2013-02-22 03:35:00,23.2,19.4,30.22,NE,54,6.0,7.0,85,0.00,,,0.00,Wunderground v.1.15,2013-02-22 08:35:00,
2013-02-22 03:40:00,23.2,19.4,30.22,NE,46,6.0,6.0,85,0.00,,,0.00,Wunderground v.1.15,2013-02-22 08:40:00,
2013-02-22 03:50:00,23.2,19.4,30.20,ENE,78,7.0,11.0,85,0.00,,,0.00,Wunderground v.1.15,2013-02-22 08:50:00,
2013-02-22 04:00:00,23.2,19.4,30.18,NE,36,9.0,10.0,85,0.00,,,0.00,Wunderground v.1.15,2013-02-22 09:00:00,
2013-02-22 04:10:00,23.2,19.4,30.18,ENE,70,10.0,10.0,85,0.00,,,0.00,Wunderground v.1.15,2013-02-22 09:10:00,
2013-02-22 04:20:00,23.2,19.1,30.17,NNE,32,9.0,9.0,84,0.00,,,0.00,Wunderground v.1.15,2013-02-22 09:20:00,
2013-02-22 04:30:00,23.3,19.2,30.17,ENE,58,9.0,14.0,84,0.00,,,0.00,Wunderground v.1.15,2013-02-22 09:30:00,
2013-02-22 04:35:00,23.5,19.4,30.16,NE,46,8.0,14.0,84,0.00,,,0.00,Wunderground v.1.15,2013-02-22 09:35:00,
2013-02-22 04:45:00,23.6,19.5,30.16,ESE,108,7.0,8.0,84,0.00,,,0.00,Wunderground v.1.15,2013-02-22 09:45:00,
2013-02-22 04:50:00,23.7,19.6,30.16,ENE,64,7.0,7.0,84,0.00,,,0.00,Wunderground v.1.15,2013-02-22 09:50:00,
2013-02-22 05:01:00,23.7,19.6,30.16,ENE,64,5.0,7.0,84,0.00,,,0.00,Wunderground v.1.15,2013-02-22 10:01:00,
2013-02-22 05:10:00,23.8,19.4,30.16,East,86,6.0,9.0,83,0.00,,,0.00,Wunderground v.1.15,2013-02-22 10:10:00,
2013-02-22 05:15:00,23.9,19.5,30.16,ENE,61,7.0,10.0,83,0.00,,,0.00,Wunderground v.1.15,2013-02-22 10:15:00,
2013-02-22 05:25:00,24.0,19.3,30.15,ENE,68,9.0,9.0,82,0.00,,,0.00,Wunderground v.1.15,2013-02-22 10:25:00,
2013-02-22 05:35:00,23.9,19.2,30.14,ENE,75,8.0,10.0,82,0.00,,,0.00,Wunderground v.1.15,2013-02-22 10:35:00,
2013-02-22 05:40:00,23.9,19.2,30.14,East,80,8.0,8.0,82,0.00,,,0.00,Wunderground v.1.15,2013-02-22 10:40:00,
2013-02-22 05:50:00,23.9,18.9,30.14,ESE,120,7.0,7.0,81,0.00,,,0.00,Wunderground v.1.15,2013-02-22 10:50:00,
2013-02-22 05:55:00,23.9,19.2,30.14,ESE,109,7.0,7.0,82,0.00,,,0.00,Wunderground v.1.15,2013-02-22 10:55:00,
2013-02-22 06:00:00,23.7,19.6,30.15,ENE,69,7.0,13.0,84,0.00,,,0.00,Wunderground v.1.15,2013-02-22 11:00:00,
2013-02-22 06:10:00,23.4,19.8,30.15,SE,126,6.0,6.0,86,0.00,,,0.00,Wunderground v.1.15,2013-02-22 11:10:00,
2013-02-22 06:20:00,23.1,19.8,30.14,SE,127,6.0,6.0,87,0.00,,,0.00,Wunderground v.1.15,2013-02-22 11:20:00,
2013-02-22 06:25:00,22.9,20.1,30.13,ENE,75,7.0,7.0,89,0.00,,,0.00,Wunderground v.1.15,2013-02-22 11:25:00,
2013-02-22 06:35:00,22.7,20.2,30.12,South,169,7.0,7.0,90,0.00,,,0.00,Wunderground v.1.15,2013-02-22 11:35:00,
2013-02-22 06:45:00,22.7,20.7,30.10,ENE,74,6.0,7.0,92,0.00,,,0.00,Wunderground v.1.15,2013-02-22 11:45:00,
2013-02-22 06:50:00,22.6,20.4,30.09,ENE,60,7.0,7.0,91,0.00,,,0.00,Wunderground v.1.15,2013-02-22 11:50:00,
2013-02-22 07:00:00,22.4,20.4,30.09,NE,44,7.0,7.0,92,0.00,,,0.00,Wunderground v.1.15,2013-02-22 12:00:00,
2013-02-22 07:05:00,22.4,20.4,30.09,ENE,60,7.0,10.0,92,0.00,,,0.00,Wunderground v.1.15,2013-02-22 12:05:00,
2013-02-22 07:15:00,22.5,20.5,30.08,ENE,58,7.0,9.0,92,0.00,,,0.00,Wunderground v.1.15,2013-02-22 12:15:00,
2013-02-22 07:25:00,22.5,20.5,30.07,NE,48,6.0,10.0,92,0.00,,,0.00,Wunderground v.1.15,2013-02-22 12:25:00,
2013-02-22 07:35:00,22.6,20.9,30.08,SSE,156,7.0,7.0,93,0.00,,,0.00,Wunderground v.1.15,2013-02-22 12:35:00,
2013-02-22 07:45:00,22.8,21.1,30.09,SE,125,6.0,7.0,93,0.00,,,0.00,Wunderground v.1.15,2013-02-22 12:45:00,
2013-02-22 07:50:00,22.9,21.2,30.08,ENE,75,6.0,9.0,93,0.00,,,0.00,Wunderground v.1.15,2013-02-22 12:50:00,
2013-02-22 08:01:00,23.1,21.4,30.08,North,3,6.0,6.0,93,0.00,,,0.00,Wunderground v.1.15,2013-02-22 13:01:00,
2013-02-22 08:10:00,23.2,21.5,30.07,ENE,70,6.0,10.0,93,0.00,,,0.00,Wunderground v.1.15,2013-02-22 13:10:00,
2013-02-22 08:15:00,23.2,21.5,30.07,ENE,57,7.0,10.0,93,0.00,,,0.00,Wunderground v.1.15,2013-02-22 13:15:00,
2013-02-22 08:25:00,23.3,21.6,30.07,NE,47,6.0,13.0,93,0.00,,,0.00,Wunderground v.1.15,2013-02-22 13:25:00,
2013-02-22 08:30:00,23.3,21.6,30.06,ENE,68,6.0,6.0,93,0.00,,,0.00,Wunderground v.1.15,2013-02-22 13:30:00,
2013-02-22 08:40:00,23.4,21.7,30.06,NE,43,5.0,5.0,93,0.00,,,0.00,Wunderground v.1.15,2013-02-22 13:40:00,
2013-02-22 08:50:00,23.7,22.0,30.06,East,95,5.0,5.0,93,0.00,,,0.00,Wunderground v.1.15,2013-02-22 13:50:00,
2013-02-22 08:55:00,23.9,22.2,30.06,ENE,65,4.0,7.0,93,0.00,,,0.00,Wunderground v.1.15,2013-02-22 13:55:00,
2013-02-22 09:01:00,24.0,22.5,30.07,ENE,69,5.0,5.0,94,0.00,,,0.00,Wunderground v.1.15,2013-02-22 14:01:00,
2013-02-22 09:10:00,24.2,22.5,30.07,ENE,66,7.0,7.0,93,0.00,,,0.00,Wunderground v.1.15,2013-02-22 14:10:00,
2013-02-22 09:15:00,24.4,22.7,30.07,ENE,69,6.0,10.0,93,0.00,,,0.00,Wunderground v.1.15,2013-02-22 14:15:00,
2013-02-22 09:25:00,24.7,23.0,30.06,ENE,71,5.0,8.0,93,0.00,,,0.00,Wunderground v.1.15,2013-02-22 14:25:00,
2013-02-22 09:35:00,24.9,23.2,30.06,East,101,5.0,10.0,93,0.00,,,0.00,Wunderground v.1.15,2013-02-22 14:35:00,
2013-02-22 09:40:00,25.1,23.4,30.06,ESE,117,6.0,6.0,93,0.00,,,0.00,Wunderground v.1.15,2013-02-22 14:40:00,
2013-02-22 09:50:00,25.3,23.6,30.06,East,97,4.0,4.0,93,0.00,,,0.00,Wunderground v.1.15,2013-02-22 14:50:00,
2013-02-22 10:00:00,25.7,24.0,30.05,NE,49,6.0,6.0,93,0.00,,,0.00,Wunderground v.1.15,2013-02-22 15:00:00,
2013-02-22 10:05:00,25.9,24.2,30.05,ENE,77,6.0,10.0,93,0.00,,,0.00,Wunderground v.1.15,2013-02-22 15:05:00,
2013-02-22 10:15:00,26.3,24.6,30.04,East,89,5.0,5.0,93,0.00,,,0.00,Wunderground v.1.15,2013-02-22 15:15:00,
2013-02-22 10:20:00,26.4,24.7,30.03,East,101,5.0,5.0,93,0.00,,,0.00,Wunderground v.1.15,2013-02-22 15:20:00,
2013-02-22 10:30:00,26.6,24.8,30.03,ESE,107,4.0,4.0,93,0.00,,,0.00,Wunderground v.1.15,2013-02-22 15:30:00,
2013-02-22 10:40:00,26.7,24.9,30.02,East,96,5.0,7.0,93,0.00,,,0.00,Wunderground v.1.15,2013-02-22 15:40:00,
2013-02-22 10:50:00,26.8,25.0,30.02,ENE,72,4.0,4.0,93,0.00,,,0.00,Wunderground v.1.15,2013-02-22 15:50:00,
2013-02-22 11:01:00,27.1,25.6,30.01,NE,52,5.0,5.0,94,0.00,,,0.00,Wunderground v.1.15,2013-02-22 16:01:00,
2013-02-22 11:10:00,27.4,25.9,30.00,ENE,68,4.0,7.0,94,0.00,,,0.00,Wunderground v.1.15,2013-02-22 16:10:00,
2013-02-22 11:15:00,27.5,26.0,30.00,ENE,77,5.0,7.0,94,0.00,,,0.00,Wunderground v.1.15,2013-02-22 16:15:00,
2013-02-22 11:25:00,27.8,26.3,30.01,SE,136,4.0,5.0,94,0.00,,,0.00,Wunderground v.1.15,2013-02-22 16:25:00,
2013-02-22 11:30:00,27.9,26.4,30.01,ESE,117,4.0,4.0,94,0.00,,,0.00,Wunderground v.1.15,2013-02-22 16:30:00,
2013-02-22 11:40:00,28.3,26.8,30.01,East,83,2.0,5.0,94,0.00,,,0.00,Wunderground v.1.15,2013-02-22 16:40:00,
2013-02-22 11:50:00,28.6,27.1,30.00,ENE,77,3.0,4.0,94,0.00,,,0.00,Wunderground v.1.15,2013-02-22 16:50:00,
2013-02-22 11:55:00,28.8,27.3,30.00,SE,131,3.0,4.0,94,0.00,,,0.00,Wunderground v.1.15,2013-02-22 16:55:00,
2013-02-22 12:00:00,28.9,27.4,30.00,East,92,4.0,4.0,94,0.00,,,0.00,Wunderground v.1.15,2013-02-22 17:00:00,
2013-02-22 12:05:00,28.9,27.4,30.00,ENE,77,4.0,4.0,94,0.00,,,0.00,Wunderground v.1.15,2013-02-22 17:05:00,
2013-02-22 12:15:00,29.2,27.7,30.00,ESE,105,3.0,4.0,94,0.00,,,0.00,Wunderground v.1.15,2013-02-22 17:15:00,
2013-02-22 12:25:00,29.2,27.7,29.99,East,97,4.0,4.0,94,0.00,,,0.00,Wunderground v.1.15,2013-02-22 17:25:00,
2013-02-22 12:35:00,29.5,28.0,29.99,ENE,63,3.0,6.0,94,0.00,,,0.00,Wunderground v.1.15,2013-02-22 17:35:00,
2013-02-22 12:45:00,29.5,28.0,29.99,ENE,60,3.0,3.0,94,0.00,,,0.00,Wunderground v.1.15,2013-02-22 17:45:00,
2013-02-22 12:55:00,29.9,28.4,29.99,NE,47,1.0,2.0,94,0.00,,,0.00,Wunderground v.1.15,2013-02-22 17:55:00,
2013-02-22 13:01:00,29.9,28.4,29.99,ENE,64,1.0,1.0,94,0.00,,,0.00,Wunderground v.1.15,2013-02-22 18:01:00,
2013-02-22 13:10:00,30.1,28.6,29.98,East,79,1.0,1.0,94,0.00,,,0.00,Wunderground v.1.15,2013-02-22 18:10:00,
2013-02-22 13:20:00,30.1,28.6,29.98,East,82,2.0,2.0,94,0.00,,,0.00,Wunderground v.1.15,2013-02-22 18:20:00,
2013-02-22 13:25:00,30.1,28.6,29.98,ENE,70,1.0,2.0,94,0.00,,,0.00,Wunderground v.1.15,2013-02-22 18:25:00,
2013-02-22 13:35:00,30.4,29.1,29.97,ESE,119,2.0,2.0,95,0.00,,,0.00,Wunderground v.1.15,2013-02-22 18:35:00,
2013-02-22 13:45:00,30.4,29.1,29.97,SSE,148,2.0,2.0,95,0.00,,,0.00,Wunderground v.1.15,2013-02-22 18:45:00,
2013-02-22 13:50:00,30.5,29.2,29.97,NE,39,2.0,2.0,95,0.00,,,0.00,Wunderground v.1.15,2013-02-22 18:50:00,
2013-02-22 14:01:00,30.6,29.3,29.97,SE,131,2.0,2.0,95,0.00,,,0.00,Wunderground v.1.15,2013-02-22 19:01:00,
2013-02-22 14:10:00,30.8,29.5,29.97,East,94,1.0,3.0,95,0.00,,,0.00,Wunderground v.1.15,2013-02-22 19:10:00,
2013-02-22 14:20:00,31.0,29.7,29.97,SE,127,1.0,1.0,95,0.00,,,0.00,Wunderground v.1.15,2013-02-22 19:20:00,
2013-02-22 14:30:00,31.3,30.0,29.97,East,97,1.0,1.0,95,0.00,,,0.00,Wunderground v.1.15,2013-02-22 19:30:00,
2013-02-22 14:40:00,31.4,30.1,29.97,East,92,1.0,1.0,95,0.00,,,0.00,Wunderground v.1.15,2013-02-22 19:40:00,
2013-02-22 14:45:00,31.4,30.1,29.96,East,82,1.0,1.0,95,0.00,,,0.00,Wunderground v.1.15,2013-02-22 19:45:00,
2013-02-22 14:55:00,31.7,30.4,29.96,SE,139,0.0,1.0,95,0.00,,,0.00,Wunderground v.1.15,2013-02-22 19:55:00,
2013-02-22 15:00:00,31.8,30.5,29.96,ENE,77,0.0,1.0,95,0.00,,,0.00,Wunderground v.1.15,2013-02-22 20:00:00,
2013-02-22 15:10:00,31.8,30.5,29.96,SE,124,0.0,0.0,95,0.00,,,0.00,Wunderground v.1.15,2013-02-22 20:10:00,
2013-02-22 15:20:00,31.8,30.5,29.96,SE,126,1.0,1.0,95,0.00,,,0.00,Wunderground v.1.15,2013-02-22 20:20:00,
2013-02-22 15:30:00,32.1,30.8,29.96,SE,135,0.0,0.0,95,0.00,,,0.00,Wunderground v.1.15,2013-02-22 20:30:00,
2013-02-22 15:35:00,32.3,31.0,29.97,WSW,251,0.0,0.0,95,0.00,,,0.00,Wunderground v.1.15,2013-02-22 20:35:00,
2013-02-22 15:45:00,32.6,31.3,29.96,SW,235,0.0,0.0,95,0.00,,,0.00,Wunderground v.1.15,2013-02-22 20:45:00,
2013-02-22 15:55:00,32.6,31.3,29.96,SE,134,0.0,1.0,95,0.00,,,0.00,Wunderground v.1.15,2013-02-22 20:55:00,
2013-02-22 16:01:00,32.6,31.3,29.97,SW,221,1.0,1.0,95,0.00,,,0.00,Wunderground v.1.15,2013-02-22 21:01:00,
2013-02-22 16:10:00,32.7,31.4,29.97,SW,227,0.0,0.0,95,0.00,,,0.00,Wunderground v.1.15,2013-02-22 21:10:00,
2013-02-22 16:15:00,32.7,31.4,29.97,ESE,108,0.0,0.0,95,0.00,,,0.00,Wunderground v.1.15,2013-02-22 21:15:00,
2013-02-22 16:25:00,32.7,31.4,29.96,SW,221,0.0,0.0,95,0.00,,,0.00,Wunderground v.1.15,2013-02-22 21:25:00,
2013-02-22 16:30:00,32.7,31.4,29.97,South,173,0.0,1.0,95,0.00,,,0.00,Wunderground v.1.15,2013-02-22 21:30:00,
2013-02-22 16:40:00,32.5,31.2,29.97,SSW,205,1.0,1.0,95,0.00,,,0.00,Wunderground v.1.15,2013-02-22 21:40:00,
2013-02-22 16:45:00,32.5,31.2,29.97,SW,227,1.0,1.0,95,0.00,,,0.00,Wunderground v.1.15,2013-02-22 21:45:00,
2013-02-22 16:55:00,32.5,31.2,29.97,South,190,1.0,1.0,95,0.00,,,0.00,Wunderground v.1.15,2013-02-22 21:55:00,
2013-02-22 17:01:00,32.4,31.1,29.97,SW,225,1.0,2.0,95,0.00,,,0.00,Wunderground v.1.15,2013-02-22 22:01:00,
2013-02-22 17:10:00,32.4,31.4,29.97,SW,214,1.0,1.0,96,0.00,,,0.00,Wunderground v.1.15,2013-02-22 22:10:00,
2013-02-22 17:20:00,32.5,31.5,29.97,SSE,159,0.0,2.0,96,0.00,,,0.00,Wunderground v.1.15,2013-02-22 22:20:00,
2013-02-22 17:25:00,32.5,31.5,29.97,SW,224,1.0,2.0,96,0.00,,,0.00,Wunderground v.1.15,2013-02-22 22:25:00,
2013-02-22 17:35:00,32.6,31.6,29.97,SW,215,1.0,1.0,96,0.00,,,0.00,Wunderground v.1.15,2013-02-22 22:35:00,
2013-02-22 17:40:00,32.7,31.7,29.97,SW,219,0.0,0.0,96,0.00,,,0.00,Wunderground v.1.15,2013-02-22 22:40:00,
2013-02-22 17:50:00,32.7,31.7,29.97,SSE,168,1.0,1.0,96,0.00,,,0.00,Wunderground v.1.15,2013-02-22 22:50:00,
2013-02-22 17:55:00,32.7,31.7,29.97,SW,218,1.0,1.0,96,0.00,,,0.00,Wunderground v.1.15,2013-02-22 22:55:00,
2013-02-22 18:00:00,32.7,31.7,29.97,SW,214,1.0,1.0,96,0.00,,,0.00,Wunderground v.1.15,2013-02-22 23:00:00,
2013-02-22 18:05:00,32.8,31.8,29.97,SW,226,1.0,1.0,96,0.00,,,0.00,Wunderground v.1.15,2013-02-22 23:05:00,
2013-02-22 18:15:00,32.9,31.9,29.98,SSW,209,1.0,2.0,96,0.00,,,0.00,Wunderground v.1.15,2013-02-22 23:15:00,
2013-02-22 18:20:00,33.0,32.0,29.98,SW,219,1.0,1.0,96,0.00,,,0.00,Wunderground v.1.15,2013-02-22 23:20:00,
2013-02-22 18:30:00,33.2,32.2,29.98,SSW,208,1.0,1.0,96,0.00,,,0.00,Wunderground v.1.15,2013-02-22 23:30:00,
2013-02-22 18:36:00,33.4,32.6,29.98,SW,218,1.0,1.0,97,0.00,,,0.00,Wunderground v.1.15,2013-02-22 23:36:00,
2013-02-22 18:45:00,33.6,32.8,29.98,SW,226,2.0,2.0,97,0.00,,,0.00,Wunderground v.1.15,2013-02-22 23:45:00,
2013-02-22 18:50:00,33.8,33.0,29.98,SSW,211,2.0,2.0,97,0.00,,,0.00,Wunderground v.1.15,2013-02-22 23:50:00,
2013-02-22 19:01:00,34.1,33.3,29.99,SSW,205,2.0,2.0,97,0.00,,,0.00,Wunderground v.1.15,2013-02-23 00:01:00,
2013-02-22 19:10:00,34.4,33.6,29.99,SSW,207,3.0,3.0,97,0.00,,,0.00,Wunderground v.1.15,2013-02-23 00:10:00,
2013-02-22 19:20:00,34.5,33.5,29.99,SW,217,3.0,3.0,96,0.00,,,0.00,Wunderground v.1.15,2013-02-23 00:20:00,
2013-02-22 19:25:00,34.6,33.6,29.99,WSW,240,3.0,3.0,96,0.00,,,0.00,Wunderground v.1.15,2013-02-23 00:25:00,
2013-02-22 19:35:00,34.6,33.3,29.99,SW,224,2.0,3.0,95,0.00,,,0.00,Wunderground v.1.15,2013-02-23 00:35:00,
2013-02-22 19:40:00,34.7,33.4,29.99,SW,233,3.0,3.0,95,0.00,,,0.00,Wunderground v.1.15,2013-02-23 00:40:00,
2013-02-22 19:50:00,34.8,33.0,29.99,SSW,208,3.0,5.0,93,0.00,,,0.00,Wunderground v.1.15,2013-02-23 00:50:00,
2013-02-22 20:01:00,34.9,33.1,29.99,East,94,3.0,3.0,93,0.00,,,0.00,Wunderground v.1.15,2013-02-23 01:01:00,
2013-02-22 20:10:00,34.9,32.8,29.98,SSW,192,2.0,2.0,92,0.00,,,0.00,Wunderground v.1.15,2013-02-23 01:10:00,
2013-02-22 20:20:00,34.9,32.5,29.99,SW,225,3.0,3.0,91,0.00,,,0.00,Wunderground v.1.15,2013-02-23 01:20:00,
2013-02-22 20:30:00,34.8,32.4,29.99,WSW,241,3.0,3.0,91,0.00,,,0.00,Wunderground v.1.15,2013-02-23 01:30:00,
2013-02-22 20:35:00,34.8,32.4,29.98,SW,230,3.0,3.0,91,0.00,,,0.00,Wunderground v.1.15,2013-02-23 01:35:00,
2013-02-22 20:45:00,34.8,32.2,29.99,WSW,257,3.0,3.0,90,0.00,,,0.00,Wunderground v.1.15,2013-02-23 01:45:00,
2013-02-22 20:50:00,34.8,32.2,29.99,SW,224,4.0,4.0,90,0.00,,,0.00,Wunderground v.1.15,2013-02-23 01:50:00,
2013-02-22 21:00:00,34.7,31.8,29.99,WSW,243,3.0,3.0,89,0.00,,,0.00,Wunderground v.1.15,2013-02-23 02:00:00,
2013-02-22 21:05:00,34.7,31.8,29.99,SW,230,3.0,3.0,89,0.00,,,0.00,Wunderground v.1.15,2013-02-23 02:05:00,
2013-02-22 21:15:00,34.7,31.8,29.99,SW,228,3.0,3.0,89,0.00,,,0.00,Wunderground v.1.15,2013-02-23 02:15:00,
2013-02-22 21:25:00,34.7,31.5,29.99,SW,226,3.0,3.0,88,0.00,,,0.00,Wunderground v.1.15,2013-02-23 02:25:00,
2013-02-22 21:30:00,34.7,31.8,29.99,WSW,240,3.0,4.0,89,0.00,,,0.00,Wunderground v.1.15,2013-02-23 02:30:00,
2013-02-22 21:40:00,34.6,31.7,29.99,SW,220,2.0,3.0,89,0.00,,,0.00,Wunderground v.1.15,2013-02-23 02:40:00,
2013-02-22 21:50:00,34.6,31.7,29.99,SSE,155,3.0,3.0,89,0.00,,,0.00,Wunderground v.1.15,2013-02-23 02:50:00,
2013-02-22 21:55:00,34.6,31.4,29.99,SW,215,2.0,4.0,88,0.00,,,0.00,Wunderground v.1.15,2013-02-23 02:55:00,
2013-02-22 22:01:00,34.5,31.3,29.99,SW,221,2.0,4.0,88,0.00,,,0.00,Wunderground v.1.15,2013-02-23 03:01:00,
2013-02-22 22:10:00,34.5,31.3,29.99,SW,216,3.0,4.0,88,0.00,,,0.00,Wunderground v.1.15,2013-02-23 03:10:00,
2013-02-22 22:15:00,34.5,31.3,29.99,SW,214,3.0,4.0,88,0.00,,,0.00,Wunderground v.1.15,2013-02-23 03:15:00,
2013-02-22 22:26:00,34.4,31.2,29.99,SSW,210,3.0,5.0,88,0.00,,,0.00,Wunderground v.1.15,2013-02-23 03:26:00,
2013-02-22 22:35:00,34.3,31.1,29.99,SSW,213,3.0,3.0,88,0.00,,,0.00,Wunderground v.1.15,2013-02-23 03:35:00,
2013-02-22 22:40:00,34.3,31.4,29.99,SSW,201,2.0,5.0,89,0.00,,,0.00,Wunderground v.1.15,2013-02-23 03:40:00,
2013-02-22 22:50:00,34.3,31.1,29.99,SW,219,3.0,3.0,88,0.00,,,0.00,Wunderground v.1.15,2013-02-23 03:50:00,
2013-02-22 22:55:00,34.3,31.1,29.99,SSW,209,2.0,4.0,88,0.00,,,0.00,Wunderground v.1.15,2013-02-23 03:55:00,
2013-02-22 23:01:00,34.3,31.1,29.99,SSW,193,3.0,3.0,88,0.00,,,0.00,Wunderground v.1.15,2013-02-23 04:01:00,
2013-02-22 23:06:00,34.3,31.4,29.99,SW,214,3.0,3.0,89,0.00,,,0.00,Wunderground v.1.15,2013-02-23 04:06:00,
2013-02-22 23:15:00,34.2,31.3,29.99,SW,217,2.0,3.0,89,0.00,,,0.00,Wunderground v.1.15,2013-02-23 04:15:00,
2013-02-22 23:20:00,34.1,31.2,29.98,WSW,240,2.0,2.0,89,0.00,,,0.00,Wunderground v.1.15,2013-02-23 04:20:00,
2013-02-22 23:31:00,34.1,31.2,29.99,SSW,212,2.0,3.0,89,0.00,,,0.00,Wunderground v.1.15,2013-02-23 04:31:00,
2013-02-22 23:40:00,34.1,31.2,29.98,SSW,210,2.0,2.0,89,0.00,,,0.01,Wunderground v.1.15,2013-02-23 04:40:00,
2013-02-22 23:45:00,34.0,31.1,29.98,SW,232,2.0,2.0,89,0.00,,,0.01,Wunderground v.1.15,2013-02-23 04:45:00,
2013-02-22 23:55:00,34.1,31.2,29.98,SW,222,2.0,2.0,89,0.00,,,0.01,Wunderground v.1.15,2013-02-23 04:55:00,